K9PHP Weather Reports


time (UTC)temp
F
wind
direction
speed
knots
gust
knots
rain 1hr
in
rain 24hr
in
rain mn
in
humidity
%
barometer
mb
20260906051532 72 52 2.6 7.8 0.00 0.00 0.00 90 1010.4
20260906050010 73 52 6.1 8.7 0.00 0.00 0.00 89 1010.2
20260906044553 73 49 5.2 7.8 0.00 0.00 0.00 89 1010.3
20260906043031 73 49 4.3 8.7 0.00 0.00 0.00 89 1010.1
20260906041510 74 63 5.2 9.6 0.00 0.00 0.00 89 1009.9
20260906040037 74 74 4.3 8.7 0.00 0.00 0.00 88 1009.9
20260906034511 74 80 2.6 8.7 0.00 0.00 0.00 88 1009.8
20260906033048 75 67 5.2 11.3 0.00 0.00 0.00 88 1009.8
20260906031527 75 78 7.0 11.3 0.00 0.00 0.00 88 1009.8
20260906030006 75 94 8.7 12.2 0.00 0.00 0.00 87 1009.7
20260906024551 75 75 7.0 10.4 0.00 0.00 0.00 88 1009.8
20260906023019 75 74 6.1 8.7 0.00 0.00 0.00 87 1009.8
20260906021604 75 92 4.3 7.8 0.00 0.00 0.00 85 1009.5
20260906021502 75 101 3.5 8.7 0.00 0.00 0.00 85 1009.5
20260906020045 75 63 7.0 11.3 0.00 0.00 0.00 84 1009.3
20260906014534 75 55 3.5 6.1 0.00 0.00 0.00 82 1009.1
20260906013008 75 51 3.5 5.2 0.00 0.00 0.00 82 1008.7
20260906011546 75 49 4.3 6.1 0.00 0.00 0.00 81 1008.7
20260906010022 76 53 4.3 7.8 0.00 0.00 0.00 80 1008.5
20260906004504 77 58 3.5 5.2 0.00 0.00 0.00 79 1008.3
20260906003049 77 58 3.5 5.2 0.00 0.00 0.00 77 1008.0
20260906001528 78 59 1.7 5.2 0.00 0.00 0.00 76 1008.0
20260906000008 79 46 2.6 8.7 0.00 0.00 0.00 75 1007.9
20260905234544 80 49 8.7 12.2 0.00 0.00 0.00 73 1007.8
20260905233025 82 64 7.8 14.8 0.00 0.00 0.00 70 1008.0
20260905231514 88 34 11.3 18.2 0.00 0.00 0.00 66 1008.0
20260905230058 89 360 3.5 7.8 0.00 0.00 0.00 65 1007.8
20260905224536 89 31 0.9 5.2 0.00 0.00 0.00 66 1007.7
20260905223018 88 303 2.6 7.8 0.00 0.00 0.00 67 1007.3
20260905221555 88 304 4.3 7.0 0.00 0.00 0.00 69 1007.4
20260905220026 87 323 0.0 0.0 0.00 0.00 0.00 70 1007.2
20260905214506 88 300 0.0 0.0 0.00 0.00 0.00 70 1007.3
20260905213042 89 300 0.0 0.0 0.00 0.00 0.00 70 1007.3
20260905211521 90 293 2.6 4.3 0.00 0.00 0.00 65 1007.2
20260905210009 91 314 3.5 8.7 0.00 0.00 0.00 62 1007.6
20260905204546 92 280 3.5 7.8 0.00 0.00 0.00 60 1007.6
20260905203021 92 295 6.1 8.7 0.00 0.00 0.00 60 1007.9
20260905201504 92 313 5.2 7.8 0.00 0.00 0.00 59 1008.1
20260905200053 92 310 4.3 9.6 0.00 0.00 0.00 61 1008.2
20260905194525 92 319 5.2 8.7 0.00 0.00 0.00 60 1008.2
20260905193006 92 270 6.1 8.7 0.00 0.00 0.00 60 1008.4
20260905191552 91 228 0.0 7.0 0.00 0.00 0.00 60 1008.7
20260905190032 91 281 1.7 7.8 0.00 0.00 0.00 58 1009.0
20260905184506 90 291 3.5 7.8 0.00 0.00 0.00 61 1009.2
20260905183040 90 247 3.5 7.8 0.00 0.00 0.00 62 1009.2
20260905181532 89 271 5.2 8.7 0.00 0.00 0.00 60 1009.4
20260905180100 88 248 7.0 12.2 0.00 0.00 0.00 63 1009.5
20260905180001 88 265 7.0 12.2 0.00 0.00 0.00 61 1009.5
20260905174535 88 269 6.1 9.6 0.00 0.00 0.00 63 1009.6
20260905173019 87 262 2.6 7.0 0.00 0.00 0.00 64 1010.0
20260905171555 87 246 5.2 8.7 0.00 0.00 0.00 60 1010.0
20260905170045 87 218 7.8 12.2 0.00 0.00 0.00 62 1010.2
20260905164517 86 221 3.5 8.7 0.00 0.00 0.00 60 1010.4
20260905163057 85 204 3.5 7.0 0.00 0.00 0.00 63 1010.6
20260905161537 84 187 3.5 8.7 0.00 0.00 0.00 63 1010.8
20260905160054 84 197 2.6 7.0 0.00 0.00 0.00 64 1010.8
20260905154531 83 267 3.5 7.8 0.00 0.00 0.00 66 1010.6
20260905153012 82 242 3.5 8.7 0.00 0.00 0.00 66 1010.8
20260905151552 82 263 1.7 8.7 0.00 0.00 0.00 67 1010.6
20260905150026 82 229 4.3 11.3 0.00 0.00 0.00 65 1010.5
20260905144505 81 181 5.2 13.0 0.00 0.00 0.00 66 1010.8
20260905143049 80 161 6.1 12.2 0.00 0.00 0.00 69 1010.8
20260905141521 79 144 8.7 13.0 0.00 0.00 0.00 69 1011.0
20260905140055 78 138 3.5 13.0 0.00 0.00 0.00 72 1011.2
20260905140001 78 161 3.5 13.0 0.00 0.00 0.00 71 1011.2
20260905134535 77 154 5.2 11.3 0.00 0.00 0.00 73 1011.2
20260905133015 76 155 5.2 11.3 0.00 0.00 0.00 74 1011.3
20260905131555 75 108 6.1 10.4 0.00 0.00 0.00 76 1011.5
20260905130029 74 169 4.3 8.7 0.00 0.00 0.00 78 1011.1
20260905124509 73 162 3.5 8.7 0.00 0.00 0.00 80 1011.1
20260905123043 72 132 3.5 7.8 0.00 0.00 0.00 82 1011.2
20260905121523 71 114 2.6 9.6 0.00 0.00 0.00 83 1011.3
20260905120002 70 119 2.6 7.8 0.00 0.00 0.00 83 1011.2
20260905114544 70 110 6.1 11.3 0.00 0.00 0.00 83 1011.0
20260905113031 70 87 6.1 10.4 0.00 0.00 0.00 83 1010.9
20260905111645 71 99 7.8 13.0 0.00 0.00 0.00 83 1010.8
20260905111501 71 107 7.8 15.6 0.00 0.00 0.00 83 1010.8
20260905110037 71 107 7.8 17.4 0.00 0.00 0.00 83 1011.0
20260905104520 72 100 13.9 26.9 0.00 0.00 0.00 86 1011.0
20260905103047 72 103 12.2 16.5 0.00 0.00 0.00 93 1010.3
20260905101539 71 155 0.0 0.0 0.00 0.00 0.00 92 1009.7
20260905100057 71 155 0.0 0.0 0.00 0.00 0.00 92 1009.5
20260905094531 71 155 0.0 0.0 0.00 0.00 0.00 92 1009.4
20260905093012 71 155 0.0 0.0 0.00 0.00 0.00 92 1009.3
20260905091559 72 155 0.0 0.0 0.00 0.00 0.00 92 1009.3
20260905090029 72 155 0.0 0.0 0.00 0.00 0.00 92 1009.4
20260905084509 72 155 0.0 0.0 0.00 0.00 0.00 92 1009.3
20260905083046 72 155 0.0 0.0 0.00 0.00 0.00 92 1009.3
20260905081526 72 155 0.0 0.0 0.00 0.00 0.00 91 1009.1
20260905080004 72 155 0.0 0.0 0.00 0.00 0.00 91 1008.7
20260905074543 72 155 0.0 0.0 0.00 0.00 0.00 91 1008.6
20260905073026 72 155 0.0 0.0 0.00 0.00 0.00 91 1008.5
20260905071603 72 155 0.0 0.0 0.00 0.00 0.00 91 1008.7
20260905071508 72 155 0.0 0.0 0.00 0.00 0.00 91 1008.6
20260905070041 72 155 0.0 0.0 0.00 0.00 0.00 90 1008.7
20260905064528 72 155 0.0 0.0 0.00 0.00 0.00 90 1008.9
20260905063103 72 155 0.0 0.0 0.00 0.00 0.00 90 1009.2
20260905061552 72 155 0.0 0.0 0.00 0.00 0.00 90 1009.4
20260905060029 73 155 0.0 0.0 0.00 0.00 0.00 89 1009.6
20260905054555 73 155 0.0 0.0 0.00 0.00 0.00 89 1009.7
20260905053036 73 155 0.0 0.0 0.00 0.00 0.00 89 1009.9